Regional Weather Roundup
Issued by NWS

Home | Current Version | Previous Version | Graphics & Text | Print | Product List | Glossary On
Versions: 1 2 3 4 5 6 7 8 9 10 11 12 13 14 15 16 17 18 19 20 21 22 23 24 25 26 27 28 29 30 31 32 33 34 35 36 37 38 39 40 41 42 43 44 45 46 47 48 49 50
000
ASUS43 KIND 240009
RWRIN

WEATHER ROUNDUP FOR INDIANA
NATIONAL WEATHER SERVICE INDIANAPOLIS IN
800 PM EDT MON MAY 23 2016

NOTE: "FAIR" INDICATES FEW OR NO CLOUDS BELOW 12,000 FEET WITH NO
SIGNIFICANT WEATHER AND/OR OBSTRUCTIONS TO VISIBILITY.

* - STATION DOES NOT REPORT WEATHER SUCH AS PRECIPITATION OR FOG.

+ - STATION NOT QUALITY CONTROLLED BY THE NATIONAL WEATHER SERVICE.
    USE DATA WITH CAUTION...ESPECIALLY DEWPOINT AND RELATIVE
    HUMIDITY OBSERVATIONS.

INZ001>003-010>013-019-020-240100-
NORTHWEST INDIANA

CITY           SKY/WX    TMP DP  RH WIND       PRES   REMARKS
GARY /AIRPORT/ MOSUNNY   82  48  30 SE6       29.93F
KNOX *+        SUNNY     77  12   8 SE9       29.96S
LA PORTE +     SUNNY     79  31  17 S6        29.96S
6HR MIN TEMP:  78; 6HR MAX TEMP:  82;

MICHIGAN CITY+ SUNNY     77  39  25 S3        29.95S
MONTICELLO +   SUNNY     77  21  12 S3        29.96S
6HR MIN TEMP:  76; 6HR MAX TEMP:  80;

RENSSELAER +   SUNNY     79  32  18 S7        29.95S
VALPARAISO     SUNNY     78  37  22 S6        29.95F
6HR MIN TEMP:  77; 6HR MAX TEMP:  81;


$$

LMZ046-743>745-240100-
SOUTHERN LAKE MICHIGAN

STATION/POSITION TIME  TEMP    WIND        PRES    WAVE
                       AIR SEA DIR/SP/G            HT
                 (UTC) (F)     (DEG/KT/KT) (MB)    (FT)
BURNS HARBOR     2300   67      80/  4/  8 1014.6S
MICHIGAN CITY    2300   64      30/  9/ 10   N/A
5NW MICH CITY    0000   61 59   30/  6/  6   N/A     0

$$

INZ004-005-014>016-021>024-240100-
NORTH CENTRAL INDIANA

CITY           SKY/WX    TMP DP  RH WIND       PRES   REMARKS
ELKHART        SUNNY     75  45  33 S5        29.97F
GOSHEN         SUNNY     74  29  19 S9        29.97S
6HR MIN TEMP:  73; 6HR MAX TEMP:  79; 6HR PCP: TRACE;

LOGANSPORT +   SUNNY     75  32  20 S6        29.98S
PERU/GRISSOM   SUNNY     75  38  26 S6        29.97S
6HR MIN TEMP:  75; 6HR MAX TEMP:  78;

ROCHESTER +    SUNNY     77  36  22 S3        29.98S
SOUTH BEND     SUNNY     75  34  22 SW6       29.97S
6HR MIN TEMP:  75; 6HR MAX TEMP:  79;

WARSAW +       SUNNY     73  30  20 S3        29.98F

$$

INZ006>009-017-018-025>027-240100-
NORTHEAST INDIANA

CITY           SKY/WX    TMP DP  RH WIND       PRES   REMARKS
ANGOLA *+      CLEAR     73  36  25 SE5       29.98F
AUBURN +       CLEAR     73  39  29 CALM      29.99S
FORT WAYNE     CLEAR     73  39  29 SE5       29.99S
6HR MIN TEMP:  73; 6HR MAX TEMP:  78;

HUNTINGTON +   CLEAR     74  29  19 S3        29.98S

$$

INZ028-029-035-036-043>045-051>053-240100-
WEST CENTRAL INDIANA

CITY           SKY/WX    TMP DP  RH WIND       PRES   REMARKS
CRAWFORDSVL +  SUNNY     74  39  28 SE5       29.97S
6HR MIN TEMP:  74; 6HR MAX TEMP:  78;

GREENCASTLE +  SUNNY     72  50  46 SE3       29.98S
LAFAYETTE      SUNNY     76  35  22 S5        29.96R
6HR MIN TEMP:  75; 6HR MAX TEMP:  79;

TERRE HAUTE    SUNNY     75  48  38 S3        29.97R
6HR MIN TEMP:  75; 6HR MAX TEMP:  81;


$$

INZ030>032-037>040-046>048-054>057-064-065-240100-
CENTRAL INDIANA

CITY           SKY/WX    TMP DP  RH WIND       PRES   REMARKS
CP ATTERBURY + CLEAR     72  43  35 S5        29.99S
COLUMBUS       CLEAR     75  39  27 SW5       29.98F
FRANKFORT +      N/A     77 -18   2 CALM      30.00R
GREENWOOD *+   CLEAR     73  39  29 S5        29.99S
INDIANAPOLIS   CLEAR     73  39  29 S7        29.98S
6HR MIN TEMP:  73; 6HR MAX TEMP:  78;

-EAGLE CREEK   CLEAR     75  34  22 SW5       29.98S
6HR MIN TEMP:  74; 6HR MAX TEMP:  78;

KOKOMO *+      CLEAR     72  39  30 S7        29.97S
6HR MIN TEMP:  72; 6HR MAX TEMP:  77;

MARION +       CLEAR     74  34  22 CALM      29.99S
SHELBYVILLE    CLEAR     76  43  30 S6        29.98S
6HR MIN TEMP:  76; 6HR MAX TEMP:  80;

ZIONSVILLE +   CLEAR     74  38  27 S3        29.99S
6HR MIN TEMP:  73; 6HR MAX TEMP:  77;


$$

INZ033-034-041-042-049-050-058-059-240100-
EAST CENTRAL INDIANA

CITY           SKY/WX    TMP DP  RH WIND       PRES   REMARKS
MUNCIE         CLEAR     76  37  24 S5        29.99R
6HR MIN TEMP:  74; 6HR MAX TEMP:  79;


$$

INZ060-061-067>069-081>083-085>088-240100-
SOUTHWEST INDIANA

CITY           SKY/WX    TMP DP  RH WIND       PRES   REMARKS
EVANSVILLE     CLOUDY    78  46  32 E3        29.96S
HUNTINGBURG *+ CLEAR     73  46  38 SE5       29.97S
6HR MIN TEMP:  73; 6HR MAX TEMP:  81;

WASHINGTON +   SUNNY     75  51  43 SE5       29.96S
6HR MIN TEMP:  75; 6HR MAX TEMP:  81;


$$

INZ062-063-066-070>080-084-089>092-240100-
SOUTH CENTRAL AND SOUTHEAST INDIANA

CITY           SKY/WX    TMP DP  RH WIND       PRES   REMARKS
BLOOMINGTON    CLEAR     75  44  33 SE6       29.98S
6HR MIN TEMP:  75; 6HR MAX TEMP:  79;

MADISON *+     CLEAR     73  46  38 CALM      30.02S
SEYMOUR +      CLEAR     77  46  33 CALM      29.99S

$$




USA.gov is the U.S. government's official web portal to all federal, state and local government web resources and services.